Location: Jackson
(42.2460°N, 84.4010°W)
Time: 18:59:03
(UTC-04:00)

Courier 1B Rocket - Pass Details

Date: 13 February 2026
Orbit: 920 x 1201 km, 28.2° (Epoch: 12 March)

Event Time Altitude Azimuth Distance (km) Brightness Sun altitude
Rises 23:10:31 0° 243° (WSW) 3,673 - -53.5°
Reaches altitude 10° 23:13:34 10° 231° (SW) 2,768 - -53.9°
Maximum altitude 23:18:54 25° 178° (S) 1,962 - -54.5°
Drops below altitude 10° 23:24:31 10° 126° (SE) 2,935 - -55.2°
Sets 23:27:53 0° 114° (ESE) 3,942 - -55.6°
